User: anonymous   Login
Location: ??????
(30.5519°N, 47.7720°E)
Time: 17:20:07
(UTC+00:00)
Language:

SJ 16-02 - Orbit

View from above orbital plane
View from above orbital plane
View from above satellite
View from above satellite

Ground track
Ground track

The orbit data is extracted from the following two-line orbital elements,

1 41634U 16043A   21110.13245166  .00000259  00000-0  32954-4 0  9998
2 41634  75.0036 219.2516 0008471 275.9284  84.0956 14.85789744260786
Epoch (UTC): 20 April 2021 03:10:43
Eccentricity: 0.0008471
inclination: 75.0036°
perigee height: 605 km
apogee height: 617 km
right ascension of ascending node: 219.2516°
argument of perigee: 275.9284°
revolutions per day: 14.85789744
mean anomaly at epoch: 84.0956°
orbit number at epoch: 26078

The dashed part of the orbit path shows where the satellite is in the earth's shadow,  

DLR